Flag for Netherlands Weather past 2 weeks in Zoetermeer, Netherlands

Now
34 °F

Snow. Mostly cloudy.


Feels Like: 22 °F
Forecast: 27 / 39 °F
Wind: 23 mph from Southeast

Location: Rotterdam Zestienhoven Airport

Current Time: Dec 27, 2014 at 5:43:55 AM

Latest Report: Dec 27, 2014 at 4:25 AM


Visibility: 1 mi

Pressure: 29.50 "Hg

Humidity: 93%

Dew point: 32 °F

Location of ZoetermeerLocation

Historic Weather in Zoetermeer — Graph

°F

Zoetermeer temperature yesterday

Maximum temperature yesterday: 43 °F (at 12:55 PM)
Minimum temperature yesterday: 32 °F (at 2:55 AM)
Average temperature yesterday: 38 °F

Past Weeks' High & Low Weather Summary

 TemperatureHumidityPressure
High55 °F (Dec 23, 1:25 PM)100% (Dec 13, 5:25 PM)30.39 "Hg (Dec 13, 5:25 PM)
Low32 °F (Dec 14, 12:55 AM)66% (Dec 12, 11:25 PM)29.30 "Hg (Dec 12, 8:25 AM)
Average45 °F86%29.94 "Hg
* Reported Dec 12 3:25 AM — Dec 27 3:55 AM, Zoetermeer, Weather by CustomWeather, © 2014

Note: Actual official high and low records may vary slightly from our data, if they occured in-between our weather recording intervals... More about our weather records

Advertising

Zoetermeer weather history for previous 24 hours

 ConditionsComfort  
Time TempWeatherWind HumidityBarometerVisibility
3:55 AM
Dec 27
34 °FLight snow. Partly cloudy.23 mph93%29.56 "Hg2 mi
3:25 AM34 °FSnow. Mostly cloudy.21 mph93%29.62 "Hg1 mi
2:55 AM34 °FSnow flurries. Mostly cloudy.17 mph93%29.65 "Hg1 mi
2:25 AM34 °FRain. Mostly cloudy.15 mph100%29.71 "Hg2 mi
1:55 AM37 °FLight rain. Mostly cloudy.16 mph93%29.77 "Hg2 mi
1:25 AM39 °FDrizzle. Mostly cloudy.18 mph87%29.83 "HgN/A
12:55 AM39 °FMostly cloudy.17 mph87%29.86 "HgN/A
12:25 AM39 °FPassing clouds.16 mph87%29.89 "HgN/A
11:55 PM
Dec 26
39 °FPassing clouds.17 mph87%29.92 "HgN/A
11:25 PM39 °FOvercast.16 mph87%29.95 "Hg6 mi
10:55 PM39 °FPassing clouds.14 mph87%29.98 "Hg6 mi
10:25 PM39 °FPassing clouds.15 mph93%30.04 "Hg5 mi
9:55 PM39 °FPassing clouds.13 mph93%30.07 "Hg4 mi
9:25 PM39 °FPassing clouds.14 mph93%30.07 "Hg4 mi
8:55 PM39 °FFog.12 mph93%30.09 "Hg3 mi
8:25 PM39 °FFog.13 mph93%30.12 "Hg3 mi
7:55 PM39 °FFog.10 mph93%30.15 "Hg3 mi
7:25 PM39 °FFog.13 mph93%30.18 "Hg3 mi
6:55 PM41 °FPartly cloudy.10 mph87%30.21 "Hg4 mi
6:25 PM41 °FPassing clouds.12 mph87%30.21 "Hg4 mi
5:55 PM41 °FPartly cloudy.10 mph93%30.24 "Hg4 mi
5:25 PM41 °FPartly cloudy.10 mph93%30.24 "HgN/A
4:55 PM41 °FPartly cloudy.7 mph93%30.27 "HgN/A
4:25 PM41 °FClear.6 mph93%30.27 "HgN/A
3:55 PM41 °FClear.7 mph87%30.27 "HgN/A
3:25 PM43 °FClear.7 mph81%30.30 "HgN/A
2:55 PM43 °FPartly sunny.7 mph87%30.30 "HgN/A
2:25 PM43 °FPassing clouds.5 mph87%30.33 "HgN/A
1:55 PM43 °FPartly sunny.5 mph87%30.33 "HgN/A
1:25 PM43 °FClear.7 mph87%30.36 "HgN/A
12:55 PM43 °FClear.6 mph87%30.36 "HgN/A
12:25 PM41 °FClear.5 mph87%30.39 "HgN/A
11:55 AM39 °FClear.1 mph93%30.39 "HgN/A
11:25 AM39 °FClear.No wind93%30.39 "HgN/A
10:55 AM37 °FClear.3 mph93%30.39 "HgN/A
10:25 AM36 °FClear.5 mph93%30.39 "HgN/A
9:55 AM34 °FScattered clouds.3 mph93%30.39 "HgN/A
9:25 AM37 °FPassing clouds.5 mph93%30.39 "HgN/A
8:55 AM34 °FBroken clouds.1 mph93%30.39 "Hg5 mi
8:25 AM32 °FChilly.2 mph100%30.39 "Hg6 mi
7:55 AM34 °FChilly.1 mph93%30.39 "HgN/A
7:25 AM34 °FChilly.3 mph93%30.39 "HgN/A
6:55 AM32 °FPartly cloudy.5 mph100%30.39 "HgN/A
6:25 AM32 °FChilly.1 mph100%30.39 "HgN/A
5:55 AM36 °FPassing clouds.3 mph93%30.39 "HgN/A
5:25 AM32 °FPassing clouds.5 mph100%30.39 "HgN/A
Weather by CustomWeather, © 2014

See weather overviewHow to use our weather pages